Location: Sweet Grass
(48.9965°N, 111.9649°W)
Time: 00:04:00
(UTC+00:00)

Tiangong - Visible Passes

Search period start: 29 November 2022 00:00
Search period end: 09 December 2022 00:00
Orbit: 386 x 393 km, 41.5° (Epoch: 28 November)

Date Brightness Start Highest point End Pass type
(mag) Time Alt. Az. Time Alt. Az. Time Alt. Az.
02 Dec 0.3 01:24:03 10° SSW 01:25:47 14° SSE 01:26:03 14° SSE visible
03 Dec 0.6 00:27:18 10° SSE 00:27:51 10° SSE 00:28:24 10° SSE visible
03 Dec 0.4 02:01:38 10° SW 02:02:56 17° SSW 02:02:56 17° SSW visible
04 Dec 0.1 01:03:48 10° SSW 01:06:02 18° SSE 01:07:28 14° SE visible
05 Dec 0.5 00:06:09 10° SSW 00:07:59 14° SSE 00:09:48 10° SE visible
05 Dec -0.1 01:41:46 10° SW 01:44:17 21° S 01:44:17 21° S visible
06 Dec 0.0 00:43:42 10° SW 00:46:09 20° S 00:48:36 10° SE visible
06 Dec 0.9 02:20:14 10° WSW 02:21:05 14° SW 02:21:05 14° SW visible
07 Dec 0.0 01:21:54 10° SW 01:24:21 20° S 01:25:35 16° SSE visible
08 Dec 0.1 00:23:40 10° SW 00:26:09 21° S 00:28:39 10° SE visible
08 Dec 0.6 02:00:39 10° SW 02:02:26 14° SSW 02:02:26 14° SSW visible
